Zurück zum Katalog

JILIN-1 GAOFEN 03D 19 XING

AktivWissenschaftSSO
NORAD 57004·PAYLOAD·🇨🇳 China
Dieser Satellitenname wurde noch nicht durch offizielle Quellen bestätigt.

Gestartet Jun 15, 2023 von Taiyuan Satellite Launch Center

Loading…

Nächste Überflüge (nächste 24 Stunden)

TLE

AktuellSource: Space-Track

Epoche: Sep 14, 2026, 14:38 UTC

1 57004U 23085A   26257.61041605  .00010721  00000-0  34469-3 0  9999
2 57004  97.5023   8.6415 0007744  77.2290 282.9817 15.32412475180254

Verfolge JILIN-1 GAOFEN 03D 19 XING in Echtzeit mit AllMySat

Download on the App Store